Weather History for EGAC - January, 2013

Change the Weather History Date:

Thursday, January 31, 2013

  Actual Average (WUND) Record (WUND)
Temperature  
Mean Temperature 44 °F -  
Max Temperature 46 °F 44 °F - (-1)
Min Temperature 41 °F 35 °F - (-1)
Degree Days  
Heating Degree Days 22    
Moisture  
Dew Point 37 °F    
Average Humidity 77    
Maximum Humidity 87    
Minimum Humidity 71    
Precipitation  
Precipitation 0.00 in - - ()
Sea Level Pressure  
Sea Level Pressure 29.54 in    
Wind  
Wind Speed 21 mph ()    
Max Wind Speed 34 mph    
Max Gust Speed 52 mph    
Visibility 6.2 miles    
Events Rain    
Averages and records for this station are not official NWS values.
T = Trace of Precipitation, MM = Missing Value Source: Averaged Metar Reports

Daily Weather History Graph

Daily Weather History Graph

Search for Another Location

Airport or City:

Trip Planner

Search our weather history database for the weather conditions in past years. The results will help you decide how hot, cold, wet, or windy it might be!

Date:

Astronomy

Jan. 31, 2013 Rise Set
Actual Time 8:14 AM GMT 5:00 PM GMT
Civil Twilight 7:34 AM GMT 5:39 PM GMT
Nautical Twilight 6:51 AM GMT 6:23 PM GMT
Astronomical Twilight 6:09 AM GMT 7:05 PM GMT
Moon 10:45 PM GMT (1/31) 9:14 AM GMT (1/31)
Length of Visible Light 10h 05m
Length of Day
8h 46m
Waning Gibbous, 81% of the Moon is Illuminated
Jan 31
Waning Gibbous
Feb 3
Last Quarter
Feb 10
New
Feb 17
First Quarter
Feb 25
Full

Hourly Weather History & Observations

Time (GMT) Temp. Windchill Dew Point Humidity Pressure Visibility Wind Dir Wind Speed Gust Speed Precip Events Conditions
6:20 AM 42.8 °F 32.7 °F 37.4 °F 81% 29.36 in 6.2 mi SW 27.6 mph 39.1 mph N/A Rain Light Rain
6:50 AM 42.8 °F 32.7 °F 39.2 °F 87% 29.36 in 6.2 mi SW 27.6 mph 42.6 mph N/A Rain Rain
7:20 AM 42.8 °F 33.3 °F 37.4 °F 81% 29.39 in 6.2 mi SW 24.2 mph 36.8 mph N/A   Mostly Cloudy
7:50 AM 42.8 °F 32.7 °F 37.4 °F 81% 29.39 in 6.2 mi SW 27.6 mph 42.6 mph N/A Rain Light Rain
8:20 AM 44.6 °F 34.6 °F 37.4 °F 76% 29.39 in 6.2 mi WSW 31.1 mph 43.7 mph N/A   Scattered Clouds
8:50 AM 42.8 °F 31.9 °F 37.4 °F 81% 29.39 in 6.2 mi WSW 32.2 mph 51.8 mph N/A Rain Light Rain
9:20 AM 44.6 °F 34.1 °F 37.4 °F 76% 29.39 in 6.2 mi WSW 34.5 mph 50.6 mph N/A   Scattered Clouds
9:50 AM 44.6 °F 35.5 °F 35.6 °F 71% 29.44 in 6.2 mi SW 25.3 mph 44.9 mph N/A   Partly Cloudy
10:20 AM 44.6 °F 35.9 °F 37.4 °F 76% 29.50 in 6.2 mi SW 23.0 mph 34.5 mph N/A   Partly Cloudy
10:50 AM 44.6 °F 35.9 °F 35.6 °F 71% 29.50 in 6.2 mi SW 23.0 mph 34.5 mph N/A   Partly Cloudy
11:20 AM 44.6 °F 36.6 °F 35.6 °F 71% 29.53 in 6.2 mi SW 19.6 mph 32.2 mph N/A   Partly Cloudy
11:50 AM 46.4 °F 38.1 °F 37.4 °F 71% 29.53 in 6.2 mi WSW 24.2 mph - N/A Rain Light Rain Showers
12:20 PM 46.4 °F 38.3 °F 37.4 °F 71% 29.56 in 6.2 mi SW 23.0 mph - N/A Rain Light Rain Showers
12:50 PM 46.4 °F 38.5 °F 37.4 °F 71% 29.56 in 6.2 mi SW 21.9 mph 34.5 mph N/A   Partly Cloudy
1:20 PM 42.8 °F 33.1 °F 39.2 °F 87% 29.59 in 6.2 mi SW 25.3 mph 39.1 mph N/A Rain Light Rain Showers
1:50 PM 44.6 °F 36.1 °F 37.4 °F 76% 29.56 in 6.2 mi WSW 21.9 mph 33.4 mph N/A   Partly Cloudy
2:20 PM 46.4 °F 38.3 °F 37.4 °F 71% 29.59 in 6.2 mi WSW 23.0 mph 34.5 mph N/A   Partly Cloudy
2:50 PM 46.4 °F 40.1 °F 39.2 °F 76% 29.59 in 6.2 mi SW 15.0 mph - N/A   Scattered Clouds
3:20 PM 46.4 °F 39.8 °F 37.4 °F 71% 29.59 in 6.2 mi SW 16.1 mph - N/A   Scattered Clouds
3:50 PM 46.4 °F 39.5 °F 37.4 °F 71% 29.59 in 6.2 mi WSW 17.3 mph - N/A   Scattered Clouds
4:20 PM 46.4 °F 40.1 °F 37.4 °F 71% 29.59 in 6.2 mi SW 15.0 mph - N/A   Scattered Clouds
4:50 PM 46.4 °F 39.2 °F 37.4 °F 71% 29.59 in 6.2 mi SW 18.4 mph - N/A   Scattered Clouds
5:20 PM 44.6 °F 36.9 °F 37.4 °F 76% 29.59 in 6.2 mi SW 18.4 mph - N/A   Scattered Clouds
5:50 PM 44.6 °F 36.6 °F 37.4 °F 76% 29.59 in 6.2 mi SW 19.6 mph 31.1 mph N/A Rain Light Rain Showers
6:20 PM 42.8 °F 35.1 °F 37.4 °F 81% 29.62 in 6.2 mi SW 16.1 mph - N/A   Scattered Clouds
6:50 PM 42.8 °F 35.1 °F 37.4 °F 81% 29.62 in 6.2 mi SW 16.1 mph - N/A   Partly Cloudy
7:20 PM 42.8 °F 35.4 °F 37.4 °F 81% 29.62 in 6.2 mi SW 15.0 mph - N/A   Partly Cloudy
7:50 PM 42.8 °F 34.3 °F 37.4 °F 81% 29.62 in 6.2 mi SW 19.6 mph 38.0 mph N/A Rain Light Rain Showers
8:20 PM 41.0 °F 33.1 °F 37.4 °F 87% 29.62 in 6.2 mi SW 15.0 mph - N/A Rain Light Rain Showers
8:50 PM 41.0 °F 34.3 °F 37.4 °F 87% 29.62 in 6.2 mi SSW 11.5 mph - N/A   Partly Cloudy
9:20 PM 41.0 °F 32.8 °F 35.6 °F 81% 29.62 in 6.2 mi SSW 16.1 mph - N/A   Partly Cloudy
9:50 PM 41.0 °F 33.1 °F 35.6 °F 81% 29.59 in 6.2 mi SSW 15.0 mph - N/A   Partly Cloudy
10:20 PM 41.0 °F 32.8 °F 35.6 °F 81% 29.59 in 6.2 mi SSW 16.1 mph - N/A   Partly Cloudy